[[{"header":{"parameterUnit":"m.s-1","parameterCategory":1,"la1":30.2991,"la2":30.254,"lo1":-89.0895,"lo2":-89.0444,"dy":0.0017,"dx":0.0017,"nx":28,"ny":28,"refTime":"2024-04-06T09:00:00:Z","depth":0,"parameterNumber":2,"parameterNumberName":"U-component_of_WINDS"},"data":[0,0,0,0,0,0,0,0,0,0,0,0,0,0,0,0,0,0,0,0,0,0,0,0,0,0,0,0,0,0,0,0,0,0,0,0,0,0,0,0,0,0,0,0,0,0,0,0,0,0,0,0,0,0,0,0,0,0,-3.0779,-3.0779,0,-3.0805,-3.0805,-3.0805,-3.0753,-3.0751,-3.075,-3.0748,-3.0773,-3.0776,-3.0778,0,0,0,0,0,0,0,0,0,0,0,0,0,-3.0682,-3.0684,-3.0779,-3.0779,-3.0779,-3.0805,-3.0805,-3.0805,-3.0753,-3.0751,-3.0749,-3.0747,-3.0773,-3.0775,-3.0778,0,0,0,0,0,0,0,0,0,0,0,0,0,-3.0718,-3.0685,-3.0779,-3.0756,-3.0755,-3.0805,-3.0805,-3.0806,-3.0754,-3.0751,-3.0749,-3.0746,-3.0772,-3.0775,-3.0778,-3.0851,0,0,-3.0789,-3.079,0,0,0,0,0,0,0,0,-3.0716,-3.0721,-3.0759,-3.0758,-3.0756,-3.0773,-3.078,-3.0821,-3.0754,-3.0754,-3.0748,-3.0745,-3.0775,-3.0778,-3.0789,-3.0852,-3.0853,-3.0789,-3.0791,-3.0793,-3.0794,0,0,0,0,0,0,0,-3.0713,-3.072,-3.0789,-3.076,-3.0758,-3.0745,-3.0747,-3.0788,-3.0779,-3.0754,-3.075,-3.0754,-3.0774,-3.0786,-3.0789,-3.0853,-3.0789,-3.0792,-3.0794,-3.0795,-3.0976,-3.0978,0,0,0,0,0,0,-3.0714,-3.0718,-3.0788,-3.079,-3.0729,-3.0749,-3.0751,-3.077,-3.0778,-3.0777,-3.0756,-3.0752,-3.0781,-3.0785,-3.079,-3.0873,-3.0793,-3.0796,-3.0798,-3.0973,-3.0976,-3.0979,0,0,0,0,0,0,-3.0712,-3.0721,-3.0787,-3.0753,-3.076,-3.0753,-3.0775,-3.0772,-3.0784,-3.078,-3.0778,-3.077,-3.0779,-3.0785,-3.0836,-3.0873,-3.0797,-3.08,-3.097,-3.0974,-3.0978,-3.1042,0,0,0,0,0,0,-3.071,-3.072,-3.0748,-3.0754,-3.0762,-3.0833,-3.0777,-3.0774,-3.079,-3.0784,-3.0792,-3.0791,-3.0778,-3.0831,-3.0839,-3.0877,-3.0803,-3.0966,-3.0972,-3.0976,-3.1036,-3.1048,-3.1058,0,0,0,0,0,-3.0706,-3.0765,-3.075,-3.0758,-3.0797,-3.0836,-3.084,-3.0824,-3.0793,-3.082,-3.0818,-3.0791,-3.0869,-3.0836,-3.0845,-3.0884,-3.0964,-3.097,-3.0976,-3.1032,-3.1046,-3.1057,0,0,0,0,0,0,-3.0763,-3.0765,-3.0748,-3.0811,-3.0824,-3.0827,-3.086,-3.0839,-3.0861,-3.0854,-3.0833,-3.0835,-3.089,-3.0893,-3.0857,-3.0954,-3.0911,-3.0919,-3.095,-3.0963,-3.0974,-3.0971,-3.0806,0,0,0,0,0,-3.0783,-3.0815,-3.0815,-3.087,-3.0877,-3.0868,-3.0884,-3.0871,-3.0883,-3.0888,-3.0889,-3.0901,-3.0928,-3.0946,-3.0971,-3.1037,-3.1038,-3.1069,-3.1079,-3.1088,-3.1095,-3.1129,-3.1142,-3.1,-3.1,-3.0999,0,0,-3.0824,-3.0829,-3.0851,-3.0882,-3.089,-3.0922,-3.0873,-3.0909,-3.0933,-3.0893,-3.094,-3.0942,-3.0954,-3.1013,-3.1039,-3.1017,-3.1134,-3.1096,-3.1103,-3.1105,-3.1136,-3.115,-3.1162,-3.1004,-3.1003,-3.1002,0,0,-3.0915,-3.0923,-3.0969,-3.0979,-3.0992,-3.0985,-3.0997,-3.1003,-3.1003,-3.105,-3.1021,-3.1049,-3.1096,-3.1105,-3.1116,-3.1212,-3.1187,-3.1221,-3.1275,-3.1308,-3.1319,-3.1329,-3.1361,-3.1373,-3.1228,-3.1228,-3.1228,0,-3.0964,-3.1012,-3.0995,-3.1034,-3.1048,-3.1014,-3.106,-3.107,-3.109,-3.11,-3.1076,-3.1134,-3.114,-3.12,-3.1223,-3.1234,-3.1245,-3.1218,-3.1319,-3.1329,-3.1338,-3.1368,-3.1381,-3.1232,-3.1231,-3.1231,-3.1231,0,-3.1071,-3.1105,-3.1141,-3.1161,-3.118,-3.1222,-3.1211,-3.1231,-3.1217,-3.1213,-3.1261,-3.1268,-3.1292,-3.1306,-3.1292,-3.1364,-3.135,-3.1323,-3.1278,-3.1355,-3.1383,-3.1395,-3.1237,-3.1236,-3.1235,-3.1234,0,0,-3.1197,-3.1208,-3.1221,-3.123,-3.1242,-3.1268,-3.1309,-3.1333,-3.135,-3.1366,-3.1398,-3.144,-3.1415,-3.1428,-3.1415,-3.1444,-3.1517,-3.1413,-3.1413,-3.1431,-3.1594,-3.1613,-3.1627,-3.1502,-3.1504,-3.1506,-3.1593,0,-3.1286,-3.1355,-3.1341,-3.1409,-3.1439,-3.1408,-3.1443,-3.1454,-3.1452,-3.1477,-3.1474,-3.1503,-3.1469,-3.1477,-3.1505,-3.1502,-3.1549,-3.1496,-3.153,-3.1531,-3.1526,-3.1642,-3.1661,-3.1743,-3.1604,-3.1606,-3.1607,0,-3.1398,-3.1418,-3.1489,-3.1495,-3.1507,-3.1539,-3.156,-3.1585,-3.1597,-3.1593,-3.1608,-3.1589,-3.1628,-3.1586,-3.1639,-3.1603,-3.1616,-3.1617,-3.162,-3.1621,-3.1572,-3.1643,-3.1769,-3.178,-3.1624,-3.1623,-3.1622,0,-3.148,-3.1525,-3.1572,-3.1581,-3.1591,-3.1613,-3.1619,-3.1628,-3.1643,-3.1662,-3.1672,-3.1695,-3.1707,-3.1725,-3.1713,-3.1683,-3.1768,-3.1724,-3.1765,-3.1765,-3.1782,-3.178,-3.1909,-3.1795,-3.1794,-3.1794,-3.1794,0,-3.1579,-3.1623,-3.1609,-3.1638,-3.1686,-3.167,-3.1718,-3.172,-3.1729,-3.1757,-3.1732,-3.1759,-3.1743,-3.1768,-3.1759,-3.1804,-3.181,-3.1807,-3.1803,-3.1808,-3.1808,-3.1814,-3.1808,-3.1797,-3.1797,-3.1796,-3.1796,0,-3.1678,-3.167,-3.172,-3.1726,-3.1728,-3.1763,-3.1767,-3.1794,-3.179,-3.1826,-3.1834,-3.1828,-3.1857,-3.1847,-3.1878,-3.1872,-3.1928,-3.1919,-3.1924,-3.1921,-3.1961,-3.1956,-3.2096,-3.2113,-3.199,-3.1991,-3.1992,0,-3.174,-3.1773,-3.1782,-3.18,-3.1806,-3.1835,-3.1851,-3.1836,-3.1854,-3.187,-3.1894,-3.1921,-3.1941,-3.1989,-3.1987,-3.201,-3.2,-3.2047,-3.2003,-3.2006,-3.1998,-3.1995,-3.1997,-3.2055,-3.2057,-3.2058,-3.2059,0,-3.1851,-3.1846,-3.187,-3.1893,-3.1912,-3.1929,-3.1944,-3.196,-3.1946,-3.1967,-3.1996,-3.2012,-3.2044,-3.207,-3.2092,-3.2096,-3.2075,-3.2073,-3.2083,-3.2087,-3.2088,-3.2085,-3.1946,-3.2069,-3.2068,-3.2067,-3.2067,-3.2066,-3.1932,-3.196,-3.197,-3.1997,-3.2007,-3.2022,-3.2047,-3.2046,-3.2071,-3.2095,-3.2086,-3.2119,-3.2129,-3.2156,-3.2163,-3.2189,-3.217,-3.2186,-3.2189,-3.2192,-3.2196,-3.2086,-3.2193,-3.2192,-3.2192,-3.2192,-3.2192,0,-3.204,-3.2045,-3.2071,-3.2092,-3.2114,-3.2093,-3.2109,-3.2127,-3.2157,-3.2169,-3.219,-3.2223,-3.2248,-3.2249,-3.2273,-3.2293,-3.2283,-3.2299,-3.2296,-3.2297,-3.2213,-3.22,-3.2306,-3.2306,-3.2306,-3.2306,-3.2306,-3.2306,-3.2099,-3.2143,-3.214,-3.2189,-3.2194,-3.2226,-3.2237,-3.225,-3.2259,-3.2297,-3.2318,-3.2319,-3.2326,-3.235,-3.2372,-3.2371,-3.238,-3.2399,-3.2395,-3.2315,-3.2303,-3.2293,-3.2281,-3.2402,-3.2402,-3.2477,-3.2477,-3.2478]},{"header":{"parameterUnit":"m.s-1","parameterCategory":1,"la1":30.2991,"la2":30.254,"lo1":-89.0895,"lo2":-89.0444,"dy":0.0017,"dx":0.0017,"nx":28,"ny":28,"refTime":"2024-04-06T09:00:00:Z","depth":0,"parameterNumber":3,"parameterNumberName":"V-component_of_WINDS"},"data":[0,0,0,0,0,0,0,0,0,0,0,0,0,0,0,0,0,0,0,0,0,0,0,0,0,0,0,0,0,0,0,0,0,0,0,0,0,0,0,0,0,0,0,0,0,0,0,0,0,0,0,0,0,0,0,0,0,0,2.9277,2.9277,0,2.9313,2.9314,2.9314,2.9277,2.9275,2.9274,2.9273,2.9306,2.9308,2.9311,0,0,0,0,0,0,0,0,0,0,0,0,0,2.9172,2.9174,2.9277,2.9277,2.9278,2.9313,2.9314,2.9314,2.9277,2.9275,2.9274,2.9272,2.9306,2.9308,2.9311,0,0,0,0,0,0,0,0,0,0,0,0,0,2.9213,2.9174,2.9277,2.9264,2.9263,2.9313,2.9314,2.9314,2.9277,2.9275,2.9273,2.9271,2.9305,2.9308,2.9311,2.9375,0,0,2.9321,2.9323,0,0,0,0,0,0,0,0,2.9211,2.9217,2.9265,2.9265,2.9264,2.9288,2.9289,2.9335,2.9278,2.9272,2.9272,2.927,2.9302,2.9305,2.9317,2.9377,2.9378,2.9322,2.9324,2.9325,2.9326,0,0,0,0,0,0,0,2.9208,2.9216,2.9291,2.9266,2.9265,2.9255,2.9258,2.9297,2.9298,2.9272,2.9269,2.9275,2.9301,2.9314,2.9317,2.9379,2.9322,2.9325,2.9327,2.9328,2.9493,2.9495,0,0,0,0,0,0,2.9207,2.9213,2.929,2.9292,2.9232,2.9258,2.9262,2.9283,2.9298,2.9298,2.9276,2.9273,2.9309,2.9313,2.9318,2.9394,2.9325,2.9328,2.933,2.949,2.9493,2.9496,0,0,0,0,0,0,2.9205,2.9214,2.9288,2.9252,2.9261,2.9262,2.9285,2.9284,2.9297,2.9301,2.9301,2.9289,2.9307,2.9314,2.9361,2.9394,2.933,2.9333,2.9487,2.9491,2.9494,2.9546,0,0,0,0,0,0,2.9202,2.9214,2.9239,2.9253,2.9263,2.9332,2.9287,2.9287,2.9303,2.9299,2.9313,2.9313,2.9306,2.9357,2.9365,2.9398,2.9336,2.9484,2.9489,2.9493,2.9541,2.9551,2.9559,0,0,0,0,0,2.9199,2.9251,2.9241,2.925,2.9294,2.9334,2.934,2.9331,2.9306,2.9331,2.9333,2.9313,2.939,2.9362,2.9371,2.9405,2.9482,2.9488,2.9493,2.9537,2.9549,2.9559,0,0,0,0,0,0,2.924,2.9253,2.9241,2.93,2.9316,2.9328,2.9359,2.9344,2.9367,2.9362,2.9349,2.9353,2.9404,2.9409,2.9378,2.9468,2.9432,2.9439,2.9462,2.9473,2.9482,2.9479,2.9338,0,0,0,0,0,2.9256,2.9288,2.9297,2.9348,2.9358,2.9357,2.9374,2.9366,2.9382,2.9389,2.9395,2.941,2.9437,2.9456,2.9481,2.9542,2.9544,2.957,2.9579,2.9586,2.9592,2.9624,2.9636,2.9513,2.9513,2.9513,0,0,2.9289,2.93,2.9321,2.9357,2.9369,2.9402,2.9363,2.9399,2.9423,2.9394,2.9439,2.9445,2.9461,2.9515,2.954,2.9522,2.9627,2.9593,2.9599,2.9601,2.9631,2.9643,2.9653,2.9517,2.9516,2.9515,0,0,2.9366,2.9378,2.9422,2.9435,2.9454,2.9453,2.9464,2.9478,2.9481,2.9527,2.9506,2.9533,2.9581,2.9593,2.9606,2.9689,2.967,2.9697,2.9743,2.9774,2.9784,2.9793,2.9821,2.9832,2.9704,2.9704,2.9704,0,2.9405,2.9454,2.9446,2.9484,2.95,2.9477,2.9521,2.9533,2.9559,2.957,2.955,2.961,2.9619,2.9676,2.9696,2.9707,2.9718,2.9695,2.9784,2.9792,2.98,2.9827,2.9838,2.9707,2.9707,2.9706,2.9706,0,2.95,2.9535,2.9568,2.9595,2.9615,2.9655,2.9652,2.9673,2.9664,2.9665,2.9712,2.9723,2.975,2.9763,2.9754,2.9819,2.9807,2.9786,2.9749,2.9815,2.984,2.9851,2.9711,2.971,2.9709,2.9709,0,0,2.9603,2.9626,2.9638,2.965,2.967,2.9696,2.9735,2.9763,2.9781,2.98,2.9831,2.9873,2.9853,2.9868,2.986,2.9888,2.9952,2.9862,2.9863,2.9878,3.0023,3.0039,3.0051,2.994,2.9942,2.9944,3.0022,0,2.9681,2.975,2.9744,2.981,2.9841,2.982,2.9854,2.9869,2.9871,2.9897,2.9899,2.9929,2.9901,2.9909,2.9936,2.9938,2.998,2.9933,2.9969,2.997,2.9965,3.0064,3.0081,3.0154,3.0031,3.0033,3.0034,0,2.978,2.9804,2.9873,2.9888,2.99,2.9931,2.9956,2.9982,2.9998,2.9998,3.0015,3.0002,3.0041,3.0004,3.0056,3.0024,3.0038,3.0042,3.0044,3.0047,3.0006,3.0069,3.0177,3.0188,3.005,3.0049,3.0048,0,2.9848,2.9897,2.9944,2.9955,2.9974,2.9996,3.0005,3.0019,3.0036,3.0058,3.0069,3.0094,3.0108,3.0127,3.0122,3.0096,3.0175,3.0138,3.0175,3.0175,3.0192,3.0191,3.0304,3.0203,3.0202,3.0202,3.0202,0,2.9934,2.9977,2.9975,3.0004,3.0051,3.0044,3.009,3.0096,3.0109,3.0138,3.012,3.0148,3.0139,3.0166,3.0162,3.0205,3.0212,3.0212,3.021,3.0213,3.0213,3.0221,3.0216,3.0205,3.0205,3.0204,3.0203,0,3.0018,3.0018,3.0068,3.0082,3.0087,3.0121,3.0132,3.0159,3.016,3.0197,3.0205,3.0207,3.0238,3.0234,3.0268,3.0265,3.0319,3.0312,3.0314,3.0312,3.0349,3.0345,3.0471,3.0486,3.0376,3.0377,3.0378,0,3.0073,3.0105,3.0123,3.0142,3.0153,3.0183,3.0201,3.0194,3.0214,3.0235,3.0259,3.0288,3.0311,3.0361,3.0364,3.039,3.0382,3.0425,3.0386,3.0388,3.0382,3.038,3.0383,3.0432,3.0433,3.0434,3.0435,0,3.017,3.0169,3.0196,3.0223,3.0245,3.0266,3.0285,3.0301,3.0297,3.0319,3.035,3.0369,3.0404,3.0433,3.0457,3.0464,3.0449,3.0447,3.0457,3.046,3.046,3.046,3.0334,3.0444,3.0443,3.0443,3.0442,3.0442,3.024,3.0268,3.0285,3.0316,3.033,3.0348,3.0374,3.0379,3.0406,3.0435,3.0429,3.0465,3.048,3.0511,3.0521,3.0548,3.0533,3.0547,3.0551,3.0554,3.0558,3.0457,3.0553,3.0553,3.0552,3.0552,3.0552,0,3.0336,3.0346,3.0375,3.0403,3.0427,3.0411,3.0431,3.0452,3.0484,3.05,3.0524,3.056,3.0588,3.0594,3.062,3.0641,3.0634,3.0648,3.0646,3.0648,3.0571,3.056,3.0653,3.0653,3.0653,3.0653,3.0653,3.0653,3.0389,3.0435,3.0436,3.0489,3.0499,3.0534,3.0547,3.0563,3.0576,3.0618,3.0642,3.0646,3.0658,3.0685,3.071,3.0711,3.0721,3.0737,3.0736,3.0663,3.0653,3.0644,3.0633,3.074,3.074,3.081,3.0811,3.0811]}]]